DW3649 Athens GR current weather conditions

sailwx.info

Wind from 046

Air temperature 20.6° C
Dewpoint 9.2° C

Last reported at 2018-Apr-20 06:08 UTC.
Time now 2018-Apr-20 06:58 UTC

Location: N 37°58' E 023°45'.
View on Google Maps.

See reports from other nearby stations

  
Tides and Currents Weather Stations Pressure Air Temp Water Temp Dewpoint Dewpoint Depression Visibility Wind Speed Wind Dir Waves Ship Positions
date/time (UTC)wind fromknots sea level pressurealtimeterstation pressurevisibilityair tempwater tempwave heightnotes
2018-Apr-20 06:08 046 20.6
2018-Apr-20 05:53 046 20.0
2018-Apr-20 05:38 046 20.0
2018-Apr-20 05:22 046 19.4
2018-Apr-20 05:07 046 18.9
2018-Apr-20 04:52 046 0 17.8
2018-Apr-20 04:37 046 0 17.2
2018-Apr-20 04:22 046 17.2
2018-Apr-20 04:07 046 0 16.7
2018-Apr-20 03:52 046 0 16.7
2018-Apr-20 03:37 046 0 16.7
2018-Apr-20 03:22 046 16.7
2018-Apr-20 03:07 046 16.7
2018-Apr-20 02:52 046 0 16.7
2018-Apr-20 02:37 046 0 16.7
2018-Apr-20 02:22 046 0 16.7
2018-Apr-20 02:07 046 0 17.2
2018-Apr-20 01:52 046 17.2
2018-Apr-20 01:37 046 0 17.2
2018-Apr-20 01:22 046 17.2
2018-Apr-20 01:07 046 17.2
2018-Apr-20 00:52 046 17.2
2018-Apr-20 00:37 046 17.2
2018-Apr-20 00:22 046 16.7
2018-Apr-20 00:07 046 16.7
2018-Apr-19 23:52 046 17.2
2018-Apr-19 23:37 046 17.2
2018-Apr-19 23:22 046 17.2
2018-Apr-19 23:07 046 17.2
2018-Apr-19 22:52 046 17.2
2018-Apr-19 22:37 046 17.2
2018-Apr-19 22:22 046 17.2
2018-Apr-19 22:07 046 17.8
2018-Apr-19 21:52 046 17.8
2018-Apr-19 21:37 046 17.8
2018-Apr-19 21:22 046 17.8
2018-Apr-19 21:07 046 17.8
2018-Apr-19 20:52 046 18.3
2018-Apr-19 20:37 044 18.3
2018-Apr-19 20:22 044 18.3
2018-Apr-19 20:07 044 18.3
2018-Apr-19 19:52 044 1 18.9
2018-Apr-19 19:37 044 1 18.9
2018-Apr-19 19:22 043 0 18.9
2018-Apr-19 19:07 043 18.9
2018-Apr-19 18:52 042 19.4
2018-Apr-19 18:37 043 0 19.4
2018-Apr-19 18:22 042 19.4
2018-Apr-19 18:07 042 0 20.0
2018-Apr-19 17:51 040 0 20.0
2018-Apr-19 17:36 040 2 20.0
2018-Apr-19 17:22 026 2 20.6
2018-Apr-19 17:07 030 3 20.6
2018-Apr-19 16:51 037 1 21.1
2018-Apr-19 16:36 340 3 21.1
2018-Apr-19 16:21 017 3 21.1
2018-Apr-19 16:06 015 3 21.7
2018-Apr-19 15:51 344 2 22.2
2018-Apr-19 15:36 306 3 22.2
2018-Apr-19 15:21 333 3 22.8
2018-Apr-19 15:06 005 4 22.8
2018-Apr-19 14:51 032 4 22.8
2018-Apr-19 14:36 053 3 23.3
2018-Apr-19 14:21 047 3 22.8
2018-Apr-19 14:06 341 4 23.3
2018-Apr-19 13:51 031 3 23.3
2018-Apr-19 13:36 011 3 23.9
2018-Apr-19 13:21 309 4 23.9
2018-Apr-19 13:06 030 4 23.9
2018-Apr-19 12:51 027 3 23.9
2018-Apr-19 12:36 032 4 23.3
2018-Apr-19 12:21 046 3 23.3
2018-Apr-19 12:06 344 3 23.3
2018-Apr-19 11:51 071 5 23.3
2018-Apr-19 11:36 338 4 23.3
2018-Apr-19 11:21 060 3 23.3
2018-Apr-19 11:06 024 4 23.3
2018-Apr-19 10:51 005 4 23.3
2018-Apr-19 10:36 051 4 22.8
2018-Apr-19 10:21 332 4 22.8
2018-Apr-19 10:06 067 5 22.8
2018-Apr-19 09:51 061 3 22.8
2018-Apr-19 09:36 010 4 22.2
2018-Apr-19 09:21 035 5 22.2
2018-Apr-19 09:06 005 3 21.7
2018-Apr-19 08:51 034 6 21.1
2018-Apr-19 08:36 038 6 21.1
2018-Apr-19 08:21 015 4 21.1
2018-Apr-19 08:06 055 6 20.6
2018-Apr-19 07:51 036 5 21.1
2018-Apr-19 07:36 028 5 20.6
2018-Apr-19 07:21 015 5 20.0
2018-Apr-19 07:06 335 5 20.0
2018-Apr-19 06:51 005 4 20.0
2018-Apr-19 06:36 048 5 19.4
2018-Apr-19 06:21 005 5 19.4
2018-Apr-19 06:07 037 4 19.4
2018-Apr-19 05:50 067 5 18.9
2018-Apr-19 05:35 031 1 18.9
2018-Apr-19 05:20 344 3 18.9
2018-Apr-19 05:05 355 4 18.3
2018-Apr-19 04:50 032 2 18.3
2018-Apr-19 04:35 355 1 17.8
2018-Apr-19 04:20 027 0 17.8
2018-Apr-19 04:05 016 0 17.8
2018-Apr-19 03:50 013 17.2
2018-Apr-19 03:35 014 17.2
2018-Apr-19 03:20 021 17.2
2018-Apr-19 03:05 021 17.2
2018-Apr-19 02:50 021 17.2
2018-Apr-19 02:35 020 0 17.2
2018-Apr-19 02:20 031 0 17.8
2018-Apr-19 02:05 040 0 17.8
2018-Apr-19 01:50 184 17.8
2018-Apr-19 01:35 184 0 17.8
2018-Apr-19 01:20 193 17.8
2018-Apr-19 01:05 193 17.8
2018-Apr-19 00:50 194 0 17.8
2018-Apr-19 00:35 198 0 17.8
2018-Apr-19 00:20 202 17.2
2018-Apr-19 00:05 202 17.2
2018-Apr-18 23:50 202 17.8
2018-Apr-18 23:35 202 17.8
2018-Apr-18 23:20 202 17.8
2018-Apr-18 23:05 202 17.8
2018-Apr-18 22:50 202 17.8
2018-Apr-18 22:35 202 17.8
2018-Apr-18 22:20 202 17.8
2018-Apr-18 22:05 202 18.3
2018-Apr-18 21:50 202 0 18.3
2018-Apr-18 21:35 202 18.3
2018-Apr-18 21:20 206 18.3
2018-Apr-18 21:05 206 18.3
2018-Apr-18 20:50 206 17.8
2018-Apr-18 20:35 206 17.8
2018-Apr-18 20:20 206 18.3
2018-Apr-18 20:05 206 0 18.3
2018-Apr-18 19:50 206 1 18.3
2018-Apr-18 19:35 206 18.3
2018-Apr-18 19:20 206 1 18.9
2018-Apr-18 19:05 206 0 19.4
2018-Apr-18 18:50 206 19.4
2018-Apr-18 18:35 206 19.4
2018-Apr-18 18:20 206 19.4
2018-Apr-18 18:05 206 20.0
2018-Apr-18 17:50 206 20.0
2018-Apr-18 17:35 206 20.6
2018-Apr-18 17:20 206 20.6
2018-Apr-18 17:05 206 1 20.6
2018-Apr-18 16:50 206 0 20.6
2018-Apr-18 16:35 206 21.1
2018-Apr-18 16:20 206 0 21.1
2018-Apr-18 16:05 206 0 21.1
2018-Apr-18 15:50 206 1 21.1
2018-Apr-18 15:35 206 1 21.1
2018-Apr-18 15:20 206 1 21.1
2018-Apr-18 15:05 206 1 20.6
2018-Apr-18 14:50 206 2 20.6
2018-Apr-18 14:35 191 3 21.1
2018-Apr-18 14:20 197 4 21.1
2018-Apr-18 14:05 209 4 21.1
2018-Apr-18 13:50 213 5 20.6
2018-Apr-18 13:35 211 5 20.6
2018-Apr-18 13:20 149 5 21.1
2018-Apr-18 13:05 197 2 20.6
2018-Apr-18 12:50 192 3 21.1
2018-Apr-18 12:35 338 0 23.3
2018-Apr-18 12:20 031 1 23.3
2018-Apr-18 12:05 049 2 23.3
2018-Apr-18 11:50 067 1 23.3
2018-Apr-18 11:35 014 2 23.3
2018-Apr-18 11:20 011 2 23.3
2018-Apr-18 11:04 347 3 23.3
2018-Apr-18 10:49 019 3 23.3
2018-Apr-18 10:34 024 4 22.8
2018-Apr-18 10:19 330 4 22.8
2018-Apr-18 10:04 334 2 22.8
2018-Apr-18 09:49 043 2 22.8
2018-Apr-18 09:34 331 4 22.2
2018-Apr-18 09:19 334 2 21.7
2018-Apr-18 09:04 028 2 21.7
2018-Apr-18 08:49 030 3 21.7
2018-Apr-18 08:34 360 2 21.1
2018-Apr-18 08:19 171 2 20.0
2018-Apr-18 08:04 205 4 19.4
2018-Apr-18 07:49 213 2 20.6
2018-Apr-18 07:34 219 20.6
2018-Apr-18 07:19 219 0 19.4
2018-Apr-18 07:04 217 1 19.4
2018-Apr-18 06:49 202 20.0
2018-Apr-18 06:34 203 19.4
2018-Apr-18 06:19 203 18.9
2018-Apr-18 06:04 203 18.9